This is the latest recevied weather packets stored in our database for station/object KG5APU. If no packets are shown the sender has not sent any weather packets the latest 1 day(s).
| Time | Temp. | Humidity | Pressure | Rain* | Wind** | Luminosity | Snow |
|---|---|---|---|---|---|---|---|
| 1778037149 | 20.56° C | 77% | 1008.9 hPa | 0 mm | 1.34 m/s, 119° | 0 W/m² | - |
| 1778036544 | 20.56° C | 77% | 1008.9 hPa | 0 mm | 1.34 m/s, 210° | 0 W/m² | - |
| 1778035943 | 21.11° C | 76% | 1008.7 hPa | 0 mm | 0.89 m/s, 50° | 0 W/m² | - |
| 1778035343 | 21.11° C | 76% | 1008.2 hPa | 0 mm | 0.45 m/s, 129° | 0 W/m² | - |
| 1778034742 | 21.67° C | 76% | 1007.8 hPa | 0 mm | 1.34 m/s, 334° | 0 W/m² | - |
| 1778034137 | 22.22° C | 76% | 1007.7 hPa | 0 mm | 0.89 m/s, 38° | 0 W/m² | - |
| 1778033537 | 22.78° C | 75% | 1007 hPa | 0 mm | 0.89 m/s, 26° | 0 W/m² | - |
| 1778032932 | 22.78° C | 74% | 1007.3 hPa | 0 mm | 0 m/s | 0 W/m² | - |
| 1778032333 | 23.33° C | 74% | 1007.1 hPa | 0 mm | 0.45 m/s, 236° | 0 W/m² | - |
| 1778031731 | 23.33° C | 74% | 1007 hPa | 0 mm | 2.24 m/s, 323° | 0 W/m² | - |
| 1778031126 | 23.33° C | 72% | 1006.9 hPa | 0 mm | 1.34 m/s, 190° | 0 W/m² | - |
| 1778030525 | 23.33° C | 72% | 1006.9 hPa | 0 mm | 0.89 m/s, 97° | 0 W/m² | - |
| 1778029924 | 23.89° C | 72% | 1006.5 hPa | 0 mm | 1.79 m/s, 306° | 1 W/m² | - |
| 1778029319 | 23.89° C | 72% | 1006.1 hPa | 0 mm | 0.89 m/s, 136° | 2 W/m² | - |
| 1778028719 | 24.44° C | 71% | 1006.4 hPa | 0 mm | 1.34 m/s, 24° | 3 W/m² | - |
| 1778028119 | 25° C | 71% | 1006.1 hPa | 0 mm | 0.89 m/s, 200° | 6 W/m² | - |
| 1778027517 | 25.56° C | 69% | 1006.1 hPa | 0 mm | 0.45 m/s, 119° | 18 W/m² | - |
| 1778026914 | 26.11° C | 68% | 1006.3 hPa | 0 mm | 2.68 m/s, 322° | 30 W/m² | - |
| 1778026314 | 26.67° C | 67% | 1005.8 hPa | 0 mm | 1.79 m/s, 38° | 37 W/m² | - |
| 1778025708 | 26.67° C | 65% | 1005.3 hPa | 0 mm | 2.24 m/s, 336° | 59 W/m² | - |
| 1778025108 | 27.78° C | 62% | 1005 hPa | 0 mm | 1.34 m/s, 61° | 13 W/m² | - |
| 1778024508 | 27.78° C | 65% | 1005.3 hPa | 0 mm | 1.79 m/s, 249° | 16 W/m² | - |
| 1778023908 | 28.33° C | 73% | 1004.8 hPa | 0 mm | 1.34 m/s, 212° | 48 W/m² | - |
| 1778023303 | 28.89° C | 72% | 1004.8 hPa | 0 mm | 2.24 m/s, 183° | 126 W/m² | - |
| 1778022699 | 28.89° C | 72% | 1004.6 hPa | 0 mm | 1.79 m/s, 146° | 147 W/m² | - |
* Rain latest hour (hover to see other rain measurements)
** Current wind speed in m/s (hover to see current wind gust speed)